This is the latest recevied weather packets stored in our database for station/object G8SIB-9. If no packets are shown the sender has not sent any weather packets the latest 10 day(s).
| Time | Temp. | Humidity | Pressure | Rain* | Wind** | Luminosity | Snow |
|---|---|---|---|---|---|---|---|
| 1777924473 | 12.78° C | 76% | 1011.9 hPa | 0 mm | - | - | - |
| 1777923873 | 12.78° C | 75% | 1011.9 hPa | 0 mm | - | - | - |
| 1777923272 | 13.33° C | 74% | 1011.8 hPa | 0 mm | - | - | - |
| 1777922671 | 13.33° C | 74% | 1011.7 hPa | 0 mm | - | - | - |
| 1777922056 | 13.33° C | 74% | 1011.6 hPa | 0 mm | - | - | - |
| 1777921455 | 13.33° C | 74% | 1011.5 hPa | 0 mm | - | - | - |
| 1777920855 | 13.89° C | 74% | 1011.4 hPa | 0 mm | - | - | - |
| 1777920254 | 14.44° C | 72% | 1011.4 hPa | 0 mm | - | - | - |
| 1777919653 | 15° C | 71% | 1011.3 hPa | 0 mm | - | - | - |
| 1777919052 | 15° C | 70% | 1011.2 hPa | 0 mm | - | - | - |
| 1777918452 | 15.56° C | 69% | 1011.1 hPa | 0 mm | - | - | - |
| 1777917850 | 15° C | 68% | 1011.1 hPa | 0 mm | - | - | - |
| 1777917250 | 15.56° C | 68% | 1011.2 hPa | 0 mm | - | - | - |
| 1777916649 | 15.56° C | 68% | 1011.1 hPa | 0 mm | - | - | - |
| 1777916049 | 15.56° C | 67% | 1011.2 hPa | 0 mm | - | - | - |
| 1777914847 | 16.11° C | 66% | 1011.3 hPa | 0 mm | - | - | - |
| 1777914246 | 16.11° C | 66% | 1011.3 hPa | 0 mm | - | - | - |
| 1777913645 | 16.67° C | 65% | 1011.3 hPa | 0 mm | - | - | - |
| 1777913045 | 16.11° C | 64% | 1011.4 hPa | 0 mm | - | - | - |
| 1777912443 | 16.67° C | 64% | 1011.4 hPa | 0 mm | - | - | - |
| 1777911843 | 16.11° C | 65% | 1011.3 hPa | 0 mm | - | - | - |
| 1777911242 | 16.11° C | 66% | 1011.5 hPa | 0 mm | - | - | - |
| 1777910642 | 15.56° C | 68% | 1011.4 hPa | 0 mm | - | - | - |
| 1777910040 | 15.56° C | 69% | 1011.5 hPa | 0 mm | - | - | - |
| 1777909440 | 15° C | 69% | 1011.5 hPa | 0 mm | - | - | - |
* Rain latest hour (hover to see other rain measurements)
** Current wind speed in m/s (hover to see current wind gust speed)